This is the latest recevied weather packets stored in our database for station/object N3OZD-10. If no packets are shown the sender has not sent any weather packets the latest 10 day(s).
| Time | Temp. | Humidity | Pressure | Rain* | Wind** | Luminosity | Snow |
|---|---|---|---|---|---|---|---|
| 1777504659 | 13.33° C | 95% | 1008.2 hPa | 5.33 mm | - | - | - |
| 1777504357 | 13.89° C | 95% | 1008.3 hPa | 5.08 mm | - | - | - |
| 1777504057 | 13.89° C | 94% | 1008.6 hPa | 4.57 mm | - | - | - |
| 1777503755 | 13.33° C | 93% | 1008.7 hPa | 4.32 mm | - | - | - |
| 1777503458 | 13.89° C | 93% | 1008.9 hPa | 4.06 mm | - | - | - |
| 1777503156 | 13.33° C | 92% | 1009 hPa | 3.56 mm | - | - | - |
| 1777502856 | 13.89° C | 92% | 1009 hPa | 2.79 mm | - | - | - |
| 1777502555 | 13.89° C | 92% | 1009.1 hPa | 2.29 mm | - | - | - |
| 1777502255 | 13.89° C | 91% | 1009.3 hPa | 2.03 mm | - | - | - |
| 1777501955 | 13.89° C | 91% | 1009.3 hPa | 1.52 mm | - | - | - |
| 1777501655 | 13.89° C | 91% | 1009.2 hPa | 1.27 mm | - | - | - |
| 1777501359 | 13.89° C | 90% | 1009.1 hPa | 1.27 mm | - | - | - |
| 1777501056 | 13.89° C | 90% | 1009.1 hPa | 0.76 mm | - | - | - |
| 1777500456 | 13.89° C | 89% | 1008.9 hPa | 0.51 mm | - | - | - |
| 1777500157 | 13.89° C | 88% | 1008.8 hPa | 0.51 mm | - | - | - |
| 1777499855 | 14.44° C | 88% | 1008.8 hPa | 0.25 mm | - | - | - |
| 1777499555 | 13.89° C | 87% | 1008.9 hPa | 0.25 mm | - | - | - |
| 1777499255 | 13.89° C | 87% | 1008.7 hPa | 0.25 mm | - | - | - |
| 1777498959 | 13.89° C | 87% | 1008.8 hPa | 0 mm | - | - | - |
| 1777498955 | 13.89° C | 87% | 1008.8 hPa | 0 mm | - | - | - |
| 1777498655 | 13.89° C | 86% | 1008.9 hPa | 0 mm | - | - | - |
| 1777498356 | 13.89° C | 86% | 1008.8 hPa | 0 mm | - | - | - |
| 1777498056 | 14.44° C | 86% | 1008.9 hPa | 0.51 mm | - | - | - |
| 1777497762 | 14.44° C | 86% | 1009 hPa | 0.51 mm | - | - | - |
| 1777497460 | 14.44° C | 85% | 1009 hPa | 0.51 mm | - | - | - |
* Rain latest hour (hover to see other rain measurements)
** Current wind speed in m/s (hover to see current wind gust speed)